Weather History for Philip, SD

Change the Weather History Date:

Monday, June 24, 2013

  Actual Average Record
Temperature  
Mean Temperature 75 °F 70 °F  
Max Temperature 88 °F 84 °F 105 °F (2001)
Min Temperature 61 °F 56 °F 36 °F (1958)
Degree Days  
Heating Degree Days 0 1  
Month to date heating degree days 64 58  
Since 1 June heating degree days 64 58  
Since 1 July heating degree days 7086 7192  
Cooling Degree Days 10 6  
Month to date cooling degree days 77 85  
Year to date cooling degree days 98 112  
Since 1 June cooling degree days 77 85  
Growing Degree Days 25 (Base 50)    
Moisture  
Dew Point 60 °F    
Average Humidity 59    
Maximum Humidity 93    
Minimum Humidity 25    
Precipitation  
Precipitation 0.00 in 0.10 in 1.12 in (1969)
Month to date precipitation 1.90 2.39  
Year to date precipitation 7.46 9.31  
Sea Level Pressure  
Sea Level Pressure 29.65 in    
Wind  
Wind Speed 12 mph (SE)    
Max Wind Speed 35 mph    
Max Gust Speed 48 mph    
Visibility 10 miles    
Events      
T = Trace of Precipitation, MM = Missing Value Source: NWS Daily Summary

Daily Weather History Graph

Daily Weather History Graph

Search for Another Location

Airport:

Trip Planner

Search our weather history database for the weather conditions in past years. The results will help you decide how hot, cold, wet, or windy it might be!

Date:

Astronomy

Jun. 24, 2013 Rise Set
Actual Time 5:04 AM MDT 8:33 PM MDT
Civil Twilight 4:27 AM MDT 9:09 PM MDT
Nautical Twilight 3:40 AM MDT 9:57 PM MDT
Astronomical Twilight 2:38 AM MDT 10:58 PM MDT
Moon 9:32 PM MDT (6/24) 6:38 AM MDT (6/24)
Length of Visible Light 16h 42m
Length of Day
15h 29m
Full, 97% of the Moon is Illuminated
Jun 24
Full
Jun 29
Last Quarter
Jul 8
New
Jul 15
First Quarter
Jul 22
Full

Hourly Weather History & Observations

Time (MDT) Temp. Heat Index Dew Point Humidity Pressure Visibility Wind Dir Wind Speed Gust Speed Precip Events Conditions
12:55 AM 62.1 °F - 57.0 °F 84% 29.77 in 10.0 mi East 6.9 mph - N/A   Clear
1:55 AM 62.1 °F - 57.9 °F 86% 29.76 in 10.0 mi East 5.8 mph - N/A   Clear
2:55 AM 64.0 °F - 59.0 °F 84% 29.74 in 10.0 mi ESE 8.1 mph - N/A   Clear
3:55 AM 62.1 °F - 60.1 °F 93% 29.73 in 10.0 mi East 8.1 mph - N/A   Clear
4:55 AM 62.1 °F - 60.1 °F 93% 29.73 in 10.0 mi East 8.1 mph - N/A   Clear
5:55 AM 62.1 °F - 61.0 °F 96% 29.70 in 10.0 mi East 6.9 mph - N/A   Clear
6:55 AM 64.0 °F - 62.1 °F 93% 29.68 in 10.0 mi East 9.2 mph - N/A   Clear
7:55 AM 68.0 °F - 64.0 °F 87% 29.66 in 10.0 mi East 9.2 mph - N/A   Clear
8:55 AM 72.0 °F - 63.0 °F 73% 29.68 in 10.0 mi SE 10.4 mph 19.6 mph N/A   Clear
9:55 AM 75.9 °F - 63.0 °F 64% 29.68 in 10.0 mi SE 15.0 mph - N/A   Clear
10:55 AM 79.0 °F - 64.0 °F 60% 29.67 in 10.0 mi SE 21.9 mph 28.8 mph N/A   Clear
11:55 AM 82.9 °F 83.3 °F 61.0 °F 47% 29.65 in 10.0 mi SSE 28.8 mph 35.7 mph N/A   Clear
12:55 PM 84.9 °F 85.4 °F 62.1 °F 46% 29.62 in 10.0 mi SSE 20.7 mph 28.8 mph N/A   Clear
1:55 PM 87.1 °F 87.0 °F 61.0 °F 41% 29.60 in 10.0 mi SSE 21.9 mph 26.5 mph N/A   Clear
2:55 PM 88.0 °F 88.4 °F 62.1 °F 42% 29.58 in 10.0 mi SSE 17.3 mph 24.2 mph N/A   Clear
3:55 PM 84.9 °F 86.1 °F 64.0 °F 49% 29.58 in 10.0 mi SE 11.5 mph 19.6 mph N/A   Clear
4:55 PM 82.9 °F 85.0 °F 66.0 °F 56% 29.58 in 10.0 mi SE 5.8 mph - N/A   Clear
5:55 PM 80.1 °F 82.9 °F 69.1 °F 69% 29.60 in 10.0 mi ESE 5.8 mph - N/A   Clear
6:55 PM 79.0 °F - 68.0 °F 69% 29.62 in 9.0 mi SSE 8.1 mph - N/A   Clear
7:55 PM 84.0 °F - 44.1 °F 25% 29.56 in 10.0 mi SSW 28.8 mph 48.3 mph N/A   Clear
8:55 PM 80.1 °F - 44.1 °F 28% 29.57 in 10.0 mi SSW 15.0 mph - N/A   Clear
9:55 PM 73.9 °F - 51.1 °F 45% 29.60 in 10.0 mi ENE 9.2 mph - N/A   Clear
10:55 PM 68.0 °F - 53.1 °F 59% 29.61 in 10.0 mi Calm Calm - N/A   Clear
11:55 PM 64.0 °F - 55.0 °F 73% 29.59 in 10.0 mi West 3.5 mph - N/A   Clear